[Iaude] MPEC V53: 2023 VJ1 [a=1.57,e=0.34,i=13.4,H=25.2]

mpec at marsden.cfa.harvard.edu mpec at marsden.cfa.harvard.edu
Sun Nov 5 18:45:47 EST 2023


M.P.E.C. 2023-V53                              Issued 2023 November 5, 23:44 UT

     The Minor Planet Electronic Circulars contain information on unusual
         minor planets, routine data on comets and natural satellites,
         and occasional editorial announcements.  They are published
    on behalf of Division F of the International Astronomical Union by the
          Minor Planet Center, Smithsonian Astrophysical Observatory,
                          Cambridge, MA 02138, U.S.A.
			  
             Prepared using the Tamkin Foundation Computer Network

                              MPC at CFA.HARVARD.EDU
            URL https://www.minorplanetcenter.net/    ISSN 1523-6714

                                    2023 VJ1                                    


Observations:
     K23V01J*1C2023 11 03.29250000 46 18.437+29 29 44.59         20.01GVEV053G96
     K23V01J 1C2023 11 03.29764700 46 18.376+29 30 52.49         19.96GVEV053G96
     K23V01J 1C2023 11 03.30278900 46 18.307+29 32 00.02         19.46GVEV053G96
     K23V01J 1C2023 11 03.30793800 46 18.199+29 33 09.04         20.33GVEV053G96
     K23V01J  C2023 11 03.32839300 46 17.650+29 37 33.99         19.9 GVEV053H01
     K23V01J  C2023 11 03.33139900 46 17.635+29 38 13.60         20.4 GVEV053H01
     K23V01J  C2023 11 03.34409100 46 17.581+29 41 00.63         20.2 GVEV053H01
     K23V01J  C2023 11 03.34888800 46 17.566+29 42 03.65         20.5 GVEV053H01
     K23V01J mC2023 11 03.42364900 46 18.264+29 58 25.07         21.34GVEV053I52
     K23V01J mC2023 11 03.42408500 46 18.314+29 58 30.65         20.37GVEV053I52
     K23V01J mC2023 11 03.42452100 46 18.354+29 58 36.08         21.07GVEV053I52
     K23V01J mC2023 11 03.42496100 46 18.311+29 58 42.13         20.09GVEV053I52
     K23V01J mC2023 11 04.12675800 46 57.450+32 30 03.71         20.53GVEV053I52
     K23V01J mC2023 11 04.12732200 46 57.432+32 30 11.09         20.28GVEV053I52
     K23V01J mC2023 11 04.12789500 46 57.421+32 30 18.07         20.20GVEV053I52
     K23V01J mC2023 11 04.12845800 46 57.400+32 30 25.09         20.04GVEV053I52
     K23V01J KC2023 11 05.93194400 48 05.55 +38 15 03.5          21.2 GVEV053L01
     K23V01J KC2023 11 05.93416300 48 05.59 +38 15 26.4          21.1 GVEV053L01
     K23V01J KC2023 11 05.93638300 48 05.53 +38 15 49.8          20.9 GVEV053L01

Observer details:
G96 Mt. Lemmon Survey.  Observer J. B. Fazekas.  Measurers E. C. Beshore, D.
    Fay, J. B. Fazekas, D. C. Fuls, A. R. Gibbs, A. D. Grauer, H. Groeller, J.
    K. Hogan, R. A. Kowalski, S. M. Larson, G. J. Leonard, D. Rankin, R. L.
    Seaman, F. C. Shelly, K. W. Wierzchos.  1.5-m reflector + 10K CCD.
H01 Magdalena Ridge Observatory, Socorro.  Observers W. H. Ryan, E. V. Ryan.
    Measurer W. H. Ryan.  2.4-m f/8.9 Ritchey-Chretien + CCD.
I52 Steward Observatory, Mt. Lemmon Station.  Observer D. Rankin.  Measurers
    E. C. Beshore, D. Fay, J. B. Fazekas, D. C. Fuls, A. R. Gibbs, A. D.
    Grauer, H. Groeller, J. K. Hogan, R. A. Kowalski, S. M. Larson, G. J.
    Leonard, D. Rankin, R. L. Seaman, F. C. Shelly, K. W. Wierzchos.  1.0-m
    prime focus + CCD.
L01 Visnjan Observatory, Tican.  Observer K. Korlevic.  1.0-m f/2.9 reflector
    + CCD.

Orbital elements:
2023 VJ1                                                 Earth MOID = 0.0489 AU
Epoch 2023 Sept. 13.0 TT = JDT 2460200.5                Veres                   
M 340.63300              (2000.0)            P               Q                  
n   0.50274012     Peri.  352.13703     +0.89806166     -0.42070866             
a   1.5664157      Node    33.68872     +0.41512298     +0.71408135             
e   0.3350774      Incl.   13.38570     +0.14545846     +0.55954630             
P   1.96           H   25.24          G   0.15           U   7                  
Residuals in seconds of arc
231103 G96  0.2-  0.6+    231103 H01  0.1-  0.0     231104 I52  0.0   0.2-
231103 G96  0.0   0.0     231103 I52  0.4-  0.3+    231104 I52  0.2-  0.3-
231103 G96  0.1+  0.7-    231103 I52  0.1+  0.2+    231105 L01  0.1-  0.0
231103 G96  0.3-  0.1-    231103 I52  0.5+  0.0     231105 L01  0.3+  0.2-
231103 H01  0.1-  0.0     231103 I52  0.2-  0.3+    231105 L01  0.5-  0.2+
231103 H01  0.0   0.0     231104 I52  0.3+  0.1-
231103 H01  0.0   0.0     231104 I52  0.1+  0.1+

Ephemeris:
2023 VJ1                 a,e,i = 1.57, 0.34, 13                  q = 1.0415
Date    TT    R. A. (2000) Decl.     Delta      r    Elong.  Phase     V
2023 10 06    00 49 39.3 -61 52 50   0.1184  1.0524   113.3    60.8    22.9
...
2023 10 21    00 44 03.2 -32 27 48   0.06337 1.0415   135.1    42.5    21.0
...
2023 10 29    00 44 13.9 +05 29 42   0.05458 1.0441   157.3    21.5    20.1
...
2023 11 04    00 46 47.6 +32 03 32   0.06596 1.0497   150.3    27.9    20.7
2023 11 05    00 47 27.3 +35 24 29   0.06902 1.0510   148.2    29.8    20.8
2023 11 06    00 48 11.4 +38 27 05   0.07232 1.0523   146.2    31.6    21.0
...
2023 11 12    00 54 17.8 +51 30 07   0.09565 1.0622   137.1    39.3    21.8
...
2023 11 20    01 07 33.0 +60 18 23   0.1320  1.0797   131.2    43.5    22.7
...
2023 12 05    01 46 58.7 +65 59 09   0.2066  1.1249   128.1    43.6    23.8

M. P. C. Staff               (C) Copyright 2023 MPC           M.P.E.C. 2023-V53




More information about the Iaude mailing list